| time (UTC) | temp C | wind direction | speed KPH | gust KPH | rain 1hr cm | rain 24hr cm | rain mn cm | humidity % | barometer mb |
| 20260506203059 | 11 | 15 | 3.2 | 8.0 | 0.00 | 0.00 | 0.00 | 71 | 1012.4 |
| 20260506201600 | 11 | 33 | 1.6 | 8.0 | 0.00 | 0.00 | 0.00 | 70 | 1012.3 |
| 20260506200058 | 12 | 42 | 1.6 | 9.7 | 0.00 | 0.00 | 0.00 | 70 | 1012.1 |
| 20260506194556 | 12 | 44 | 3.2 | 12.9 | 0.00 | 0.00 | 0.00 | 69 | 1012.0 |
| 20260506193053 | 12 | 32 | 4.8 | 12.9 | 0.00 | 0.00 | 0.00 | 70 | 1011.8 |
| 20260506191553 | 12 | 74 | 1.6 | 14.5 | 0.00 | 0.00 | 0.00 | 70 | 1011.6 |
| 20260506190051 | 12 | 33 | 8.0 | 20.9 | 0.00 | 0.00 | 0.00 | 69 | 1011.4 |
| 20260506184549 | 12 | 49 | 4.8 | 16.1 | 0.00 | 0.00 | 0.00 | 68 | 1011.2 |
| 20260506183047 | 12 | 43 | 3.2 | 19.3 | 0.00 | 0.00 | 0.00 | 68 | 1011.0 |
| 20260506181546 | 13 | 5 | 6.4 | 16.1 | 0.00 | 0.00 | 0.00 | 65 | 1010.8 |
| 20260506180045 | 13 | 32 | 6.4 | 12.9 | 0.00 | 0.00 | 0.00 | 62 | 1010.6 |
| 20260506174554 | 13 | 44 | 3.2 | 11.3 | 0.00 | 0.00 | 0.00 | 60 | 1010.5 |
| 20260506173052 | 13 | 60 | 4.8 | 12.9 | 0.00 | 0.00 | 0.00 | 58 | 1010.3 |
| 20260506171542 | 13 | 41 | 1.6 | 14.5 | 0.00 | 0.00 | 0.00 | 58 | 1010.2 |
| 20260506170046 | 13 | 43 | 3.2 | 16.1 | 0.00 | 0.00 | 0.00 | 58 | 1010.1 |
| 20260506164541 | 13 | 36 | 8.0 | 17.7 | 0.00 | 0.00 | 0.00 | 66 | 1010.0 |
| 20260506163048 | 13 | 336 | 3.2 | 12.9 | 0.00 | 0.00 | 0.00 | 72 | 1010.0 |
| 20260506161541 | 13 | 341 | 4.8 | 9.7 | 0.00 | 0.00 | 0.00 | 72 | 1010.0 |
| 20260506160040 | 13 | 360 | 3.2 | 17.7 | 0.00 | 0.00 | 0.00 | 71 | 1009.9 |
| 20260506154541 | 13 | 355 | 3.2 | 9.7 | 0.00 | 0.00 | 0.00 | 68 | 1009.9 |
| 20260506153044 | 14 | 55 | 4.8 | 12.9 | 0.00 | 0.00 | 0.00 | 55 | 1009.8 |
| 20260506151538 | 14 | 26 | 3.2 | 8.0 | 0.00 | 0.00 | 0.00 | 56 | 1009.8 |
| 20260506150048 | 15 | 342 | 6.4 | 19.3 | 0.00 | 0.00 | 0.00 | 60 | 1009.8 |
| 20260506144558 | 15 | 64 | 12.9 | 25.7 | 0.00 | 0.00 | 0.00 | 54 | 1009.7 |
| 20260506143048 | 16 | 34 | 9.7 | 25.7 | 0.00 | 0.00 | 0.00 | 53 | 1009.7 |
| 20260506141537 | 16 | 49 | 8.0 | 25.7 | 0.00 | 0.00 | 0.00 | 52 | 1009.7 |
| 20260506140053 | 16 | 44 | 4.8 | 19.3 | 0.00 | 0.00 | 0.00 | 53 | 1009.7 |
| 20260506134535 | 15 | 47 | 4.8 | 19.3 | 0.00 | 0.00 | 0.00 | 55 | 1009.6 |
| 20260506133029 | 14 | 332 | 4.8 | 16.1 | 0.00 | 0.00 | 0.00 | 54 | 1009.6 |
| 20260506131538 | 13 | 355 | 3.2 | 11.3 | 0.00 | 0.00 | 0.00 | 71 | 1009.5 |
| 20260506130029 | 13 | 324 | 4.8 | 11.3 | 0.00 | 0.00 | 0.00 | 73 | 1009.6 |
| 20260506124528 | 13 | 5 | 3.2 | 14.5 | 0.00 | 0.00 | 0.00 | 70 | 1009.5 |
| 20260506123037 | 14 | 20 | 3.2 | 8.0 | 0.00 | 0.00 | 0.00 | 64 | 1009.4 |
| 20260506121527 | 14 | 12 | 6.4 | 14.5 | 0.00 | 0.00 | 0.00 | 60 | 1009.4 |
| 20260506120031 | 14 | 44 | 12.9 | 24.1 | 0.00 | 0.00 | 0.00 | 59 | 1009.3 |
| 20260506114523 | 13 | 17 | 4.8 | 16.1 | 0.00 | 0.00 | 0.00 | 63 | 1009.3 |
| 20260506113021 | 13 | 27 | 1.6 | 8.0 | 0.00 | 0.00 | 0.00 | 72 | 1009.3 |
| 20260506111521 | 12 | 15 | 4.8 | 11.3 | 0.00 | 0.00 | 0.00 | 76 | 1009.4 |
| 20260506110028 | 13 | 360 | 6.4 | 16.1 | 0.00 | 0.00 | 0.00 | 75 | 1009.4 |
| 20260506104525 | 13 | 328 | 3.2 | 11.3 | 0.00 | 0.00 | 0.00 | 76 | 1009.2 |
| 20260506103022 | 12 | 336 | 6.4 | 16.1 | 0.00 | 0.00 | 0.00 | 75 | 1009.4 |
| 20260506101520 | 13 | 43 | 3.2 | 17.7 | 0.00 | 0.00 | 0.00 | 69 | 1009.2 |
| 20260506100021 | 13 | 22 | 11.3 | 17.7 | 0.00 | 0.00 | 0.00 | 71 | 1009.1 |
| 20260506094518 | 13 | 53 | 6.4 | 12.9 | 0.00 | 0.00 | 0.00 | 73 | 1009.1 |
| 20260506093023 | 13 | 44 | 6.4 | 12.9 | 0.00 | 0.00 | 0.00 | 70 | 1009.1 |
| 20260506091514 | 13 | 64 | 6.4 | 17.7 | 0.00 | 0.00 | 0.00 | 72 | 1009.0 |
| 20260506090013 | 13 | 347 | 4.8 | 9.7 | 0.00 | 0.00 | 0.00 | 72 | 1009.0 |
| 20260506084511 | 12 | 38 | 3.2 | 14.5 | 0.00 | 0.00 | 0.00 | 74 | 1008.9 |
| 20260506083007 | 12 | 12 | 6.4 | 20.9 | 0.00 | 0.00 | 0.00 | 77 | 1008.9 |
| 20260506081512 | 12 | 53 | 3.2 | 20.9 | 0.00 | 0.00 | 0.00 | 77 | 1008.8 |
| 20260506073004 | 11 | 31 | 1.6 | 11.3 | 0.00 | 0.00 | 0.00 | 81 | 1008.8 |
| 20260506071500 | 11 | 31 | 3.2 | 8.0 | 0.00 | 0.00 | 0.00 | 82 | 1008.8 |
| 20260506061555 | 10 | 344 | 3.2 | 8.0 | 0.00 | 0.00 | 0.00 | 84 | 1008.6 |
| 20260506044553 | 10 | 21 | 3.2 | 14.5 | 0.00 | 0.00 | 0.00 | 84 | 1008.7 |
| 20260506043049 | 10 | 28 | 4.8 | 16.1 | 0.00 | 0.00 | 0.00 | 83 | 1008.7 |
| 20260506041548 | 10 | 347 | 3.2 | 9.7 | 0.00 | 0.00 | 0.00 | 83 | 1008.6 |
| 20260506040050 | 10 | 5 | 3.2 | 14.5 | 0.00 | 0.00 | 0.00 | 83 | 1008.7 |
| 20260506034607 | 10 | 38 | 1.6 | 8.0 | 0.00 | 0.00 | 0.00 | 83 | 1008.7 |
| 20260506033045 | 10 | 9 | 1.6 | 8.0 | 0.00 | 0.00 | 0.00 | 82 | 1008.8 |
| 20260506031551 | 10 | 345 | 1.6 | 11.3 | 0.00 | 0.00 | 0.00 | 81 | 1008.8 |
| 20260506030043 | 10 | 18 | 1.6 | 6.4 | 0.00 | 0.00 | 0.00 | 82 | 1009.0 |
| 20260506024548 | 10 | 355 | 4.8 | 9.7 | 0.00 | 0.00 | 0.00 | 82 | 1009.1 |
| 20260506023040 | 9 | 5 | 1.6 | 11.3 | 0.00 | 0.00 | 0.00 | 83 | 1009.1 |
| 20260506021538 | 9 | 19 | 1.6 | 6.4 | 0.00 | 0.00 | 0.00 | 83 | 1009.1 |
| 20260506020038 | 9 | 335 | 1.6 | 4.8 | 0.00 | 0.00 | 0.00 | 84 | 1009.2 |
| 20260506014537 | 9 | 360 | 1.6 | 8.0 | 0.00 | 0.00 | 0.00 | 84 | 1009.3 |
| 20260506013041 | 9 | 23 | 3.2 | 11.3 | 0.00 | 0.00 | 0.00 | 84 | 1009.3 |
| 20260506011541 | 9 | 18 | 3.2 | 11.3 | 0.00 | 0.00 | 0.00 | 83 | 1009.3 |
| 20260506010050 | 9 | 14 | 3.2 | 9.7 | 0.00 | 0.00 | 0.00 | 83 | 1009.3 |
| 20260506004532 | 9 | 355 | 3.2 | 14.5 | 0.00 | 0.00 | 0.00 | 83 | 1009.5 |
| 20260506003028 | 9 | 17 | 3.2 | 9.7 | 0.00 | 0.00 | 0.00 | 82 | 1009.7 |
| 20260506001529 | 9 | 15 | 3.2 | 12.9 | 0.00 | 0.00 | 0.00 | 82 | 1009.8 |
| 20260506000024 | 8 | 355 | 3.2 | 8.0 | 0.00 | 0.00 | 0.00 | 82 | 1009.9 |
| 20260505234523 | 8 | 9 | 1.6 | 8.0 | 0.00 | 0.00 | 0.00 | 82 | 1010.0 |
| 20260505233021 | 8 | 360 | 1.6 | 8.0 | 0.00 | 0.00 | 0.00 | 81 | 1010.1 |
| 20260505231520 | 8 | 17 | 0.0 | 6.4 | 0.00 | 0.00 | 0.00 | 81 | 1010.1 |
| 20260505230025 | 8 | 15 | 1.6 | 4.8 | 0.00 | 0.00 | 0.00 | 81 | 1010.2 |
| 20260505224517 | 9 | 15 | 1.6 | 4.8 | 0.00 | 0.00 | 0.00 | 80 | 1010.2 |
| 20260505223017 | 9 | 46 | 1.6 | 12.9 | 0.00 | 0.00 | 0.00 | 79 | 1010.2 |
| 20260505221513 | 9 | 360 | 1.6 | 6.4 | 0.00 | 0.00 | 0.00 | 79 | 1010.4 |
| 20260505220010 | 9 | 21 | 1.6 | 8.0 | 0.00 | 0.00 | 0.00 | 79 | 1010.6 |
| 20260505214510 | 10 | 360 | 1.6 | 11.3 | 0.00 | 0.00 | 0.00 | 78 | 1010.6 |
| 20260505213019 | 10 | 25 | 1.6 | 9.7 | 0.00 | 0.00 | 0.00 | 78 | 1010.6 |
| 20260505211507 | 10 | 51 | 1.6 | 9.7 | 0.00 | 0.00 | 0.00 | 78 | 1010.7 |
| 20260505210007 | 10 | 360 | 1.6 | 11.3 | 0.00 | 0.00 | 0.00 | 78 | 1010.7 |
| 20260505204506 | 10 | 44 | 3.2 | 9.7 | 0.00 | 0.00 | 0.00 | 78 | 1010.7 |